Location: Chisholm
(54.9102°N, 114.1701°W)
Time: 11:32:40
(UTC+00:00)

N. Korean satellite - Pass Details

Date: 01 December 2021
Orbit: 447 x 491 km, 97.3° (Epoch: 23 January)

Event Time Altitude Azimuth Distance (km) Brightness Sun altitude
Rises 14:03:58 0° 5° (N) 2,489 10.0 -12.5°
Reaches altitude 10° 14:06:16 10° 352° (N) 1,603 8.9 -12.2°
Maximum altitude 14:09:05 24° 296° (WNW) 980 7.5 -11.8°
Drops below altitude 10° 14:11:52 10° 241° (WSW) 1,581 8.8 -11.5°
Sets 14:14:07 0° 227° (SW) 2,446 9.9 -11.2°
